Gage, OK

10:51 AM CDT on September 26, 2017 (GMT -0500)
Gage

Weather History for KGAG - February, 2013

Change the Weather History Date:

Saturday, February 9, 2013

  Actual Average Record
Temperature  
Mean Temperature 44 °F -  
Max Temperature 53 °F 51 °F 85 °F (1976)
Min Temperature 36 °F 22 °F -9 °F (2011)
Degree Days  
Heating Degree Days 20    
Moisture  
Dew Point 40 °F    
Average Humidity 83    
Maximum Humidity 100    
Minimum Humidity 55    
Precipitation  
Precipitation 0.01 in - - ()
Sea Level Pressure  
Sea Level Pressure 29.72 in    
Wind  
Wind Speed 20 mph (South)    
Max Wind Speed 34 mph    
Max Gust Speed 46 mph    
Visibility 7 miles    
Events Rain    
Averages and records for this station are not official NWS values.
T = Trace of Precipitation, MM = Missing Value Source: NWS Daily Summary

Daily Weather History Graph

Daily Weather History Graph

Search for Another Location

Airport or City:

Trip Planner

Search our weather history database for the weather conditions in past years. The results will help you decide how hot, cold, wet, or windy it might be!

Date:

Astronomy

Feb. 09, 2013 Rise Set
Actual Time 7:32 AM CST 6:14 PM CST
Civil Twilight 7:06 AM CST 6:40 PM CST
Nautical Twilight 6:35 AM CST 7:11 PM CST
Astronomical Twilight 6:05 AM CST 7:41 PM CST
Moon 6:46 AM CST (2/9) 5:57 PM CST (2/9)
Length of Visible Light 11h 34m
Length of Day
10h 41m
Waning Crescent, 0% of the Moon is Illuminated
Feb 9
Waning Crescent
Feb 10
New
Feb 17
First Quarter
Feb 25
Full
Mar 4
Last Quarter

Hourly Weather History & Observations

Time (CST) Temp. Windchill Dew Point Humidity Pressure Visibility Wind Dir Wind Speed Gust Speed Precip Events Conditions
12:53 AM 41.0 °F 34.7 °F 27.0 °F 57% 30.04 in 10.0 mi SE 10.4 mph - N/A   Clear
1:53 AM 41.0 °F 33.9 °F 26.1 °F 55% 30.00 in 10.0 mi SSE 12.7 mph 20.7 mph N/A   Clear
2:53 AM 39.9 °F 33.4 °F 26.1 °F 58% 29.98 in 10.0 mi SSE 10.4 mph 16.1 mph N/A   Clear
3:53 AM 39.0 °F 31.4 °F 27.0 °F 62% 29.97 in 10.0 mi South 12.7 mph - N/A   Clear
4:53 AM 37.0 °F 31.0 °F 27.0 °F 67% 29.95 in 10.0 mi South 8.1 mph - N/A   Clear
5:53 AM 37.9 °F 27.6 °F 27.0 °F 65% 29.91 in 10.0 mi South 20.7 mph 31.1 mph N/A   Clear
6:53 AM 36.0 °F 25.6 °F 28.0 °F 73% 29.92 in 10.0 mi South 18.4 mph - N/A   Clear
7:53 AM 39.9 °F 32.9 °F 30.9 °F 70% 29.92 in 10.0 mi SSE 11.5 mph - N/A   Clear
8:53 AM 43.0 °F 34.2 °F 34.0 °F 71% 29.88 in 10.0 mi South 20.7 mph 25.3 mph N/A   Mostly Cloudy
9:53 AM 46.9 °F - 37.9 °F 71% 29.84 in 9.0 mi South 29.9 mph 38.0 mph N/A   Clear
10:53 AM 53.1 °F - 39.9 °F 61% 29.81 in 9.0 mi South 33.4 mph 44.9 mph N/A   Clear
11:53 AM 51.1 °F - 41.0 °F 68% 29.82 in 10.0 mi South 29.9 mph 38.0 mph N/A   Scattered Clouds
12:05 PM 51.8 °F - 41.0 °F 67% 29.82 in 10.0 mi South 25.3 mph 36.8 mph N/A   Mostly Cloudy
12:53 PM 50.0 °F - 41.0 °F 71% 29.77 in 10.0 mi SSE 29.9 mph 39.1 mph N/A   Overcast
1:23 PM 48.2 °F - 42.8 °F 82% 29.74 in 9.0 mi South 26.5 mph 38.0 mph N/A   Overcast
1:53 PM 46.9 °F - 42.1 °F 83% 29.73 in 8.0 mi South 27.6 mph 38.0 mph N/A   Overcast
2:41 PM 46.4 °F 37.7 °F 42.8 °F 87% 29.70 in 7.0 mi South 26.5 mph 35.7 mph N/A   Overcast
2:53 PM 48.0 °F - 43.0 °F 83% 29.69 in 7.0 mi South 25.3 mph 33.4 mph N/A   Overcast
3:53 PM 46.9 °F - 44.1 °F 90% 29.65 in 5.0 mi SSE 21.9 mph 34.5 mph N/A   Overcast
4:22 PM 46.4 °F 38.7 °F 44.6 °F 93% 29.63 in 5.0 mi SSE 20.7 mph 32.2 mph N/A   Overcast
4:53 PM 46.0 °F 36.7 °F 44.1 °F 93% 29.62 in 6.0 mi SSE 29.9 mph 36.8 mph N/A   Overcast
5:53 PM 45.0 °F 35.2 °F 44.1 °F 97% 29.59 in 4.0 mi SSE 29.9 mph 38.0 mph N/A   Overcast
6:53 PM 45.0 °F 34.9 °F 44.1 °F 97% 29.57 in 4.0 mi SSE 32.2 mph 46.0 mph N/A   Overcast
7:31 PM 46.4 °F 36.7 °F 44.6 °F 93% 29.56 in 2.5 mi SSE 33.4 mph 42.6 mph N/A   Overcast
7:53 PM 46.0 °F 36.1 °F 45.0 °F 96% 29.55 in 2.5 mi SSE 34.5 mph 42.6 mph N/A   Overcast
8:13 PM 46.4 °F 37.2 °F 44.6 °F 93% 29.56 in 3.0 mi South 29.9 mph 43.7 mph N/A   Overcast
8:20 PM 46.4 °F 37.2 °F 44.6 °F 93% 29.56 in 2.5 mi South 29.9 mph 38.0 mph N/A   Overcast
8:37 PM 46.4 °F 37.5 °F 44.6 °F 93% 29.57 in 3.0 mi South 27.6 mph 39.1 mph 0.00 in Rain Light Rain
8:53 PM 46.0 °F 37.0 °F 46.0 °F 100% 29.56 in 3.0 mi SSE 27.6 mph 34.5 mph 0.00 in Rain Light Rain
9:00 PM 46.4 °F 37.7 °F 46.4 °F 100% 29.57 in 2.5 mi South 26.5 mph 38.0 mph 0.00 in   Overcast
9:13 PM 46.4 °F 39.5 °F 46.4 °F 100% 29.61 in 5.0 mi SSW 17.3 mph 36.8 mph 0.00 in Rain Light Rain
9:24 PM 46.4 °F 39.8 °F 46.4 °F 100% 29.62 in 6.0 mi SW 16.1 mph - 0.00 in   Overcast
9:38 PM 46.4 °F 38.5 °F 46.4 °F 100% 29.60 in 8.0 mi South 21.9 mph - 0.00 in Rain Light Rain
9:53 PM 48.0 °F - 46.9 °F 96% 29.62 in 10.0 mi SSW 23.0 mph 29.9 mph 0.01 in   Overcast
10:49 PM 48.2 °F - 48.2 °F 100% 29.61 in 10.0 mi South 18.4 mph - 0.00 in   Overcast
10:53 PM 48.9 °F - 48.0 °F 97% 29.59 in 10.0 mi South 19.6 mph 26.5 mph 0.00 in   Overcast
11:53 PM 46.9 °F - 37.9 °F 71% 29.60 in 10.0 mi SW 17.3 mph 26.5 mph N/A   Partly Cloudy